[[{"header":{"parameterUnit":"m.s-1","parameterCategory":1,"la1":30.2991,"la2":30.254,"lo1":-89.0895,"lo2":-89.0444,"dy":0.0017,"dx":0.0017,"nx":28,"ny":28,"refTime":"2025-06-01T09:00:00:Z","depth":0,"parameterNumber":2,"parameterNumberName":"U-component_of_WINDS"},"data":[0,0,0,0,0,0,0,0,0,0,0,0,0,0,0,0,0,0,0,0,0,0,0,0,0,0,0,0,0,0,0,0,0,0,0,0,0,0,0,0,0,0,0,0,0,0,0,0,0,0,0,0,0,0,0,0,0,0,2.6673,2.6675,0,2.685,2.6852,2.6854,2.6823,2.682,2.6817,2.6814,2.6997,2.7005,2.7013,0,0,0,0,0,0,0,0,0,0,0,0,0,2.6309,2.6316,2.6673,2.6675,2.6677,2.685,2.6852,2.6855,2.6823,2.682,2.6816,2.6812,2.6995,2.7004,2.7013,0,0,0,0,0,0,0,0,0,0,0,0,0,2.6475,2.6318,2.6672,2.6682,2.6685,2.6849,2.6852,2.6855,2.6824,2.6819,2.6815,2.681,2.6992,2.7003,2.7015,2.7181,0,0,2.705,2.7055,0,0,0,0,0,0,0,0,2.6465,2.6488,2.6679,2.6682,2.6685,2.6809,2.6791,2.6964,2.6825,2.6771,2.6814,2.6808,2.6939,2.6955,2.6998,2.7189,2.7197,2.7051,2.7058,2.7064,2.7067,0,0,0,0,0,0,0,2.6454,2.648,2.6743,2.6682,2.6686,2.6679,2.6697,2.6824,2.6879,2.6776,2.6774,2.6795,2.694,2.6987,2.7002,2.72,2.7051,2.7061,2.7069,2.7073,2.7535,2.754,0,0,0,0,0,0,2.6439,2.6471,2.6737,2.6748,2.6561,2.6689,2.6709,2.6774,2.6878,2.6889,2.6799,2.6793,2.6969,2.6989,2.7009,2.7208,2.7063,2.7074,2.7081,2.753,2.7536,2.7542,0,0,0,0,0,0,2.6431,2.6463,2.673,2.6609,2.6643,2.67,2.6773,2.678,2.6827,2.6895,2.6905,2.6837,2.6966,2.6992,2.7138,2.7214,2.708,2.709,2.7524,2.7532,2.7539,2.761,0,0,0,0,0,0,2.6421,2.6461,2.6524,2.6611,2.6649,2.6856,2.6778,2.6787,2.6848,2.6841,2.6934,2.6944,2.6965,2.712,2.7149,2.7228,2.7099,2.7517,2.7527,2.7536,2.7601,2.762,2.7635,0,0,0,0,0,2.6408,2.6538,2.6527,2.656,2.673,2.6861,2.6883,2.6902,2.6854,2.6918,2.6962,2.6941,2.7202,2.7136,2.7168,2.7251,2.7512,2.7524,2.7536,2.7594,2.7616,2.7635,0,0,0,0,0,0,2.6459,2.6549,2.6539,2.67,2.6773,2.6855,2.6936,2.6926,2.7014,2.7005,2.7027,2.7048,2.7195,2.7238,2.7163,2.7417,2.735,2.7369,2.7383,2.7405,2.7422,2.7407,2.7109,0,0,0,0,0,2.6489,2.6587,2.6661,2.6796,2.6833,2.6879,2.6937,2.6946,2.7022,2.7053,2.7107,2.7183,2.7281,2.7346,2.744,2.7608,2.7627,2.7681,2.7698,2.7712,2.7727,2.7818,2.7842,2.7581,2.758,2.758,0,0,2.6552,2.6613,2.6674,2.6808,2.6866,2.6967,2.6905,2.7015,2.7091,2.707,2.721,2.7253,2.7338,2.7495,2.7567,2.7535,2.7804,2.7727,2.7737,2.7746,2.7832,2.7857,2.7879,2.7589,2.7587,2.7586,0,0,2.6718,2.6775,2.6893,2.6952,2.7039,2.7068,2.7097,2.7181,2.7208,2.7349,2.7335,2.7426,2.7595,2.7656,2.771,2.7899,2.7883,2.7929,2.8017,2.8105,2.8126,2.8144,2.821,2.8234,2.7945,2.7945,2.7945,0,2.6785,2.6937,2.6955,2.7067,2.7126,2.7111,2.7231,2.7287,2.7401,2.7442,2.7406,2.7617,2.7674,2.7844,2.789,2.7935,2.7967,2.7918,2.8121,2.814,2.8157,2.822,2.8245,2.795,2.7949,2.7949,2.7948,0,2.7015,2.712,2.7205,2.7314,2.7383,2.7498,2.7534,2.7602,2.7605,2.7639,2.7782,2.785,2.7957,2.7999,2.8004,2.817,2.8147,2.8116,2.8049,2.8187,2.8246,2.8271,2.7957,2.7955,2.7954,2.7953,0,0,2.7217,2.7334,2.7365,2.7414,2.7509,2.7591,2.7706,2.781,2.7867,2.7947,2.8043,2.8186,2.8158,2.8218,2.823,2.8308,2.8451,2.8267,2.8269,2.8297,2.8637,2.8658,2.8686,2.8442,2.8447,2.845,2.8629,0,2.7391,2.7591,2.7611,2.7791,2.7888,2.7876,2.7975,2.8045,2.8079,2.8167,2.8205,2.8306,2.8261,2.8298,2.8374,2.8417,2.8519,2.8405,2.8531,2.8535,2.8508,2.8717,2.8741,2.8906,2.8652,2.8656,2.8659,0,2.762,2.7704,2.7894,2.7974,2.8016,2.8105,2.8201,2.8285,2.8364,2.8383,2.8451,2.8452,2.857,2.85,2.8662,2.8584,2.8637,2.8666,2.8673,2.8684,2.8604,2.8732,2.8959,2.8983,2.8697,2.8694,2.8691,0,2.7746,2.7908,2.8041,2.8084,2.8182,2.8244,2.8288,2.8362,2.8423,2.8508,2.8547,2.8646,2.8699,2.8775,2.8803,2.8749,2.8964,2.8896,2.8983,2.8982,2.9027,2.9024,2.9264,2.9064,2.9064,2.9064,2.9063,0,2.7937,2.8053,2.8099,2.8181,2.8311,2.8333,2.846,2.8501,2.8567,2.8657,2.8653,2.8738,2.877,2.886,2.8883,2.9013,2.9038,2.9057,2.9061,2.9056,2.9054,2.909,2.9079,2.907,2.9069,2.9067,2.9066,0,2.8099,2.8135,2.828,2.836,2.8383,2.8475,2.8544,2.8623,2.8656,2.877,2.8798,2.885,2.8956,2.8991,2.912,2.9135,2.9287,2.9282,2.926,2.926,2.9344,2.9335,2.9614,2.9652,2.9429,2.9431,2.9433,0,2.8218,2.8306,2.8396,2.8455,2.8501,2.8597,2.8659,2.8685,2.8749,2.8845,2.8912,2.9017,2.9102,2.9271,2.9321,2.9419,2.9416,2.9507,2.9431,2.9422,2.9415,2.9409,2.9417,2.9521,2.9523,2.9525,2.9527,0,2.8424,2.8437,2.8525,2.8621,2.8694,2.8771,2.8845,2.8894,2.893,2.9003,2.9111,2.9176,2.9307,2.941,2.951,2.9556,2.9548,2.9551,2.9575,2.957,2.9553,2.9562,2.9297,2.9544,2.9542,2.9541,2.954,2.9539,2.8567,2.8644,2.8719,2.8818,2.8876,2.8945,2.9022,2.9065,2.9155,2.9262,2.9272,2.9387,2.9463,2.9596,2.9647,2.9738,2.9712,2.9749,2.9758,2.9766,2.9771,2.954,2.9757,2.9756,2.9756,2.9755,2.9755,0,2.8771,2.8818,2.8909,2.9011,2.9089,2.9074,2.9155,2.9221,2.9322,2.9393,2.9476,2.9599,2.97,2.9757,2.9858,2.992,2.9918,2.9945,2.994,2.995,2.979,2.9757,2.9944,2.9944,2.9944,2.9944,2.9944,2.9944,2.8886,2.9015,2.9037,2.9196,2.9243,2.9355,2.9402,2.9466,2.9522,2.9659,2.9742,2.9779,2.9845,2.995,3.0041,3.0055,3.0092,3.0121,3.0133,2.9981,2.9962,2.9943,2.9912,3.0129,3.0129,3.0285,3.0287,3.0288]},{"header":{"parameterUnit":"m.s-1","parameterCategory":1,"la1":30.2991,"la2":30.254,"lo1":-89.0895,"lo2":-89.0444,"dy":0.0017,"dx":0.0017,"nx":28,"ny":28,"refTime":"2025-06-01T09:00:00:Z","depth":0,"parameterNumber":3,"parameterNumberName":"V-component_of_WINDS"},"data":[0,0,0,0,0,0,0,0,0,0,0,0,0,0,0,0,0,0,0,0,0,0,0,0,0,0,0,0,0,0,0,0,0,0,0,0,0,0,0,0,0,0,0,0,0,0,0,0,0,0,0,0,0,0,0,0,0,0,1.0588,1.0589,0,1.0715,1.0716,1.0718,1.0676,1.0673,1.067,1.0668,1.0801,1.0807,1.0813,0,0,0,0,0,0,0,0,0,0,0,0,0,1.0311,1.0316,1.0588,1.0589,1.0591,1.0715,1.0716,1.0718,1.0676,1.0673,1.0669,1.0666,1.0799,1.0806,1.0814,0,0,0,0,0,0,0,0,0,0,0,0,0,1.0434,1.0318,1.0588,1.0585,1.0586,1.0714,1.0716,1.0719,1.0677,1.0673,1.0669,1.0665,1.0797,1.0806,1.0815,1.0955,0,0,1.0843,1.0847,0,0,0,0,0,0,0,0,1.0427,1.0444,1.0584,1.0585,1.0587,1.0675,1.0668,1.0798,1.0678,1.0643,1.0667,1.0663,1.0763,1.0775,1.0808,1.0961,1.0967,1.0844,1.0849,1.0853,1.0856,0,0,0,0,0,0,0,1.0419,1.0439,1.0638,1.0586,1.0588,1.0578,1.0591,1.0692,1.0725,1.0645,1.0642,1.0658,1.0763,1.0799,1.0811,1.0969,1.0844,1.0852,1.0857,1.0861,1.1242,1.1246,0,0,0,0,0,0,1.0409,1.0432,1.0634,1.0642,1.0495,1.0586,1.0601,1.0651,1.0723,1.073,1.0661,1.0655,1.0785,1.08,1.0815,1.0983,1.0853,1.0862,1.0867,1.1237,1.1243,1.1248,0,0,0,0,0,0,1.0403,1.0427,1.0629,1.0536,1.0561,1.0595,1.0652,1.0656,1.0692,1.0735,1.0741,1.0692,1.0783,1.0802,1.092,1.0987,1.0866,1.0874,1.1232,1.1239,1.1245,1.1321,0,0,0,0,0,0,1.0395,1.0426,1.0479,1.0538,1.0566,1.0732,1.0656,1.0661,1.0707,1.0701,1.0766,1.0773,1.0781,1.0906,1.0929,1.0998,1.0882,1.1226,1.1235,1.1243,1.1313,1.133,1.1344,0,0,0,0,0,1.0386,1.0496,1.0482,1.0507,1.0633,1.0736,1.0752,1.0758,1.0713,1.0767,1.0794,1.0771,1.0976,1.0919,1.0944,1.1017,1.1222,1.1232,1.1242,1.1306,1.1326,1.1344,0,0,0,0,0,0,1.0447,1.0504,1.0489,1.0621,1.0674,1.0728,1.0797,1.078,1.0847,1.0839,1.0844,1.0859,1.098,1.101,1.0945,1.1155,1.1092,1.1108,1.1132,1.1152,1.1167,1.1158,1.0889,0,0,0,0,0,1.0475,1.0552,1.0599,1.0711,1.0738,1.0763,1.0808,1.0807,1.0862,1.0885,1.0921,1.0976,1.1053,1.1103,1.1176,1.1316,1.1329,1.1378,1.1394,1.1406,1.1421,1.1496,1.1518,1.1282,1.1281,1.1281,0,0,1.0536,1.0577,1.0625,1.0724,1.0765,1.0845,1.0782,1.087,1.093,1.0899,1.1012,1.104,1.1102,1.123,1.1289,1.1259,1.1488,1.1419,1.1429,1.1437,1.1509,1.1531,1.1551,1.1289,1.1287,1.1286,0,0,1.0687,1.0726,1.0823,1.0865,1.0926,1.0941,1.0964,1.1021,1.1038,1.1151,1.1129,1.12,1.1332,1.1377,1.1417,1.1582,1.1562,1.1605,1.1689,1.1762,1.178,1.1797,1.1856,1.1878,1.1619,1.1619,1.1619,0,1.0756,1.0875,1.0876,1.0966,1.101,1.0982,1.1082,1.1122,1.1205,1.1236,1.12,1.1364,1.1404,1.1542,1.1582,1.1615,1.1643,1.1599,1.1777,1.1794,1.181,1.1866,1.1888,1.1624,1.1624,1.1623,1.1623,0,1.0956,1.1039,1.111,1.1189,1.1241,1.1335,1.1351,1.1403,1.1398,1.1417,1.1532,1.1577,1.1659,1.1691,1.1688,1.1829,1.1808,1.1775,1.1713,1.1837,1.189,1.1912,1.1631,1.1629,1.1628,1.1627,0,0,1.1153,1.1228,1.1255,1.1289,1.1353,1.1418,1.151,1.1588,1.1633,1.169,1.1768,1.1879,1.1848,1.1893,1.1893,1.1957,1.2085,1.1916,1.1918,1.1947,1.2244,1.227,1.2295,1.2071,1.2076,1.2079,1.2239,0,1.131,1.1471,1.1474,1.1622,1.1699,1.1672,1.1752,1.1801,1.182,1.1888,1.191,1.1989,1.1941,1.1968,1.203,1.2057,1.2145,1.2045,1.2145,1.2149,1.2132,1.2323,1.2351,1.25,1.226,1.2263,1.2266,0,1.1516,1.1578,1.1733,1.1785,1.1817,1.1889,1.196,1.2025,1.2079,1.2088,1.2137,1.2128,1.2222,1.2154,1.2284,1.2215,1.2256,1.2275,1.2281,1.2292,1.2216,1.234,1.2548,1.2571,1.2299,1.2296,1.2294,0,1.1645,1.1767,1.1875,1.1906,1.1968,1.2019,1.2048,1.2097,1.2143,1.2205,1.2235,1.2307,1.2348,1.2404,1.2414,1.2363,1.2544,1.2477,1.2555,1.2555,1.2597,1.2594,1.2815,1.262,1.262,1.262,1.2619,0,1.1822,1.1918,1.1934,1.2001,1.2108,1.2109,1.2215,1.2239,1.2283,1.2355,1.2336,1.2403,1.2412,1.2482,1.249,1.2596,1.2614,1.2625,1.2626,1.2628,1.2626,1.2656,1.2646,1.2626,1.2624,1.2623,1.2622,0,1.1985,1.1999,1.2115,1.2164,1.2178,1.2255,1.2297,1.2361,1.2377,1.2467,1.2489,1.2515,1.2596,1.261,1.2707,1.2712,1.2839,1.2829,1.2821,1.282,1.2898,1.2891,1.3146,1.318,1.2962,1.2964,1.2966,0,1.2098,1.2171,1.2226,1.2272,1.2302,1.2377,1.2423,1.2426,1.2475,1.254,1.2597,1.2675,1.2739,1.2869,1.2897,1.297,1.2962,1.3047,1.2974,1.2972,1.2965,1.2961,1.2968,1.3062,1.3064,1.3066,1.3068,0,1.2296,1.2299,1.2365,1.2435,1.249,1.2545,1.2596,1.2635,1.2645,1.2701,1.2783,1.2832,1.2928,1.3007,1.3079,1.3108,1.3091,1.309,1.3112,1.3115,1.3107,1.3113,1.2861,1.3085,1.3083,1.3082,1.3081,1.308,1.2438,1.2502,1.255,1.2625,1.2663,1.2712,1.2774,1.2797,1.2864,1.2943,1.294,1.303,1.308,1.3174,1.3209,1.3279,1.3252,1.3284,1.3292,1.3301,1.3308,1.3094,1.3292,1.3291,1.3291,1.3291,1.329,0,1.2637,1.2666,1.2734,1.2806,1.2865,1.284,1.2895,1.2946,1.3025,1.3072,1.3134,1.3227,1.3302,1.3335,1.3409,1.3459,1.3452,1.3478,1.3476,1.3483,1.3328,1.3302,1.3482,1.3482,1.3482,1.3482,1.3482,1.3482,1.2747,1.2853,1.2861,1.2985,1.3013,1.31,1.3134,1.3178,1.3216,1.3321,1.3382,1.3402,1.3444,1.352,1.3588,1.3595,1.3624,1.3654,1.3658,1.3513,1.3494,1.3475,1.3451,1.366,1.366,1.3807,1.3809,1.381]}]]